Time,TemperatureF,DewpointF,PressureIn,WindDirection,WindDirectionDegrees,WindSpeedMPH,WindSpeedGustMPH,Humidity,HourlyPrecipIn,Conditions,Clouds,dailyrainin,SoftwareType,DateUTC
2013-02-23 00:00:00,24.0,23.0,-100.00,North,-999,-999.0,-999.0,94,0.08,,,-99.99,,2013-02-23 08:00:00,
2013-02-23 01:00:00,24.0,23.0,-100.00,North,-999,-999.0,-999.0,94,0.03,,,-99.99,,2013-02-23 09:00:00,
2013-02-23 02:00:00,25.0,23.0,-100.00,North,-999,-999.0,-999.0,93,0.02,,,-99.99,,2013-02-23 10:00:00,
2013-02-23 03:00:00,25.0,23.0,-100.00,North,-999,-999.0,-999.0,92,0.02,,,-99.99,,2013-02-23 11:00:00,
2013-02-23 04:00:00,25.0,23.0,-100.00,North,-999,-999.0,-999.0,91,0.02,,,-99.99,,2013-02-23 12:00:00,
2013-02-23 05:00:00,25.0,23.0,-100.00,North,-999,-999.0,-999.0,93,0.03,,,-99.99,,2013-02-23 13:00:00,
2013-02-23 06:00:00,25.0,23.0,-100.00,North,-999,-999.0,-999.0,92,0.05,,,-99.99,,2013-02-23 14:00:00,
2013-02-23 08:00:00,27.0,25.0,-100.00,North,-999,-999.0,-999.0,91,0.02,,,-99.99,,2013-02-23 16:00:00,
2013-02-23 09:00:00,27.0,24.0,-100.00,North,-999,-999.0,-999.0,90,0.03,,,-99.99,,2013-02-23 17:00:00,
2013-02-23 10:00:00,28.0,25.0,-100.00,North,-999,-999.0,-999.0,87,0.02,,,-99.99,,2013-02-23 18:00:00,
2013-02-23 11:00:00,29.0,26.0,-100.00,North,-999,-999.0,-999.0,90,0.02,,,-99.99,,2013-02-23 19:00:00,
2013-02-23 12:00:00,28.0,25.0,-100.00,North,-999,-999.0,-999.0,90,0.05,,,-99.99,,2013-02-23 20:00:00,
2013-02-23 13:00:00,29.0,25.0,-100.00,North,-999,-999.0,-999.0,85,0.04,,,-99.99,,2013-02-23 21:00:00,
2013-02-23 14:00:00,29.0,26.0,-100.00,North,-999,-999.0,-999.0,87,0.04,,,-99.99,,2013-02-23 22:00:00,
2013-02-23 14:52:00,29.0,26.0,-100.00,North,-999,-999.0,-999.0,87,0.04,,,-99.99,,2013-02-23 22:52:00,
2013-02-23 15:00:00,28.0,26.0,-100.00,North,-999,-999.0,-999.0,91,0.07,,,-99.99,,2013-02-23 23:00:00,
2013-02-23 16:00:00,28.0,26.0,-100.00,North,-999,-999.0,-999.0,92,0.04,,,-99.99,,2013-02-24 00:00:00,
2013-02-23 17:00:00,28.0,26.0,-100.00,North,-999,-999.0,-999.0,93,0.02,,,-99.99,,2013-02-24 01:00:00,
2013-02-23 18:00:00,27.0,25.0,-100.00,North,-999,-999.0,-999.0,93,0.01,,,-99.99,,2013-02-24 02:00:00,
2013-02-23 19:00:00,27.0,25.0,-100.00,North,-999,-999.0,-999.0,91,0.00,,,-99.99,,2013-02-24 03:00:00,
2013-02-23 20:00:00,27.0,25.0,-100.00,North,-999,-999.0,-999.0,92,0.00,,,-99.99,,2013-02-24 04:00:00,
2013-02-23 21:00:00,27.0,26.0,-100.00,North,-999,-999.0,-999.0,94,0.00,,,-99.99,,2013-02-24 05:00:00,
2013-02-23 22:00:00,27.0,25.0,-100.00,North,-999,-999.0,-999.0,93,0.00,,,-99.99,,2013-02-24 06:00:00,
2013-02-23 23:00:00,26.0,24.0,-100.00,North,-999,-999.0,-999.0,93,0.00,,,-99.99,,2013-02-24 07:00:00,